METEOR 2-12 DEB, 45518

Orbit data source: Space-Track

METEOR 2-12 DEB, 45518 is space debris in LEO originally from a launch on Wed, 06 Feb 1985 UTC launched from the Plesetsk Missile And Space Complex (PKMTR). Debris objects in space refer to the collection of defunct objects orbiting the Earth. Examples of debris include non-operational satellites, rocket bodies, and fragments generated from explosions, collisions, or faulty payload assembly.

Loading next visibility...
Identifier
45518, 1985-013D
Orbit
LEO
Country
Flag of CISCIS
Related business
Manufacturer
Unknown
Mission
Spacecraft
Bus & Motor
Unknown
Mass
Unknown
Launch date (UTC)
1985-02-06 (41 years ago)
Launch vehicle
Unknown
Launch site
Plesetsk Missile And Space Complex (PKMTR)
Object type
Payload
Rocket body
Debris
Shape & HBR
Unknown shape, 0.1 m
Radar Cross Section
Small (<0.1 m²)

Expand to show TLE details & history
Last TLE update: 3 days ago

TLE from 3 days ago
0 METEOR 2-12 DEB
1 45518U 85013D   26170.00048067  .00001190  00000-0  72229-3 0  9997
2 45518  82.5252 267.5315 0024411  67.6836 292.6921 14.05460267121163
Epoch: 2026-06-19T00:00Z
TLE epoch observation values (Epoch: 2026-06-19T00:00:41.529Z)
Latitude
0.00002°
Longitude
0.12273°
Altitude
871.085 km
Speed
7.42 km/s
True Right ascension
17h 50m 07s
True Declination
0° 00' 00"
Sunlit
Object was in full shadow at epoch
Visualization orbit readout
Latitude
Unknown
Longitude
Unknown
Altitude
Unknown
Speed
Unknown
Apparent Right ascension
Unknown
Apparent Declination
Unknown
Sunlit
N/A
Visualization observer readout
Local Sidereal Time
21:31:37
Azimuth
Unknown
Elevation
Unknown
Doppler factor
Unknown
Orbital elements
Apogee altitude
889.77 km
Perigee altitude
854.373 km
Semi-major axis
7,250.209 km
Eccentricity
0.00244
Inclination
82.5252°
RAAN
267.5315°
Arg. of periapsis
67.6836°
True anomaly
292.43372°
Mean anomaly
292.6921°
Eccentric anomaly
292.56294°
Mean motion
3.51575 °/min
Orbital period
102.4 mins
BSTAR
0.00072229
Loading maneuver chart data...
Computing Atmospheric mass density...
Loading historical data...
Loading historical data...
Loading historical data...
Loading historical data...
Loading historical data...
Loading historical data...
Loading historical data...

Documentation

Showing up to 5 results
|